Time,TemperatureF,DewpointF,PressureIn,WindDirection,WindDirectionDegrees,WindSpeedMPH,WindSpeedGustMPH,Humidity,HourlyPrecipIn,Conditions,Clouds,dailyrainin,SoftwareType,DateUTC
2013-12-10 00:03:00,-6.7,-17.9,30.29,South,180,6.0,7.0,57,0.00,,,0.00,meteohub,2013-12-10 06:03:00,
2013-12-10 00:08:00,-6.3,-17.3,30.29,SW,225,7.0,7.0,58,0.00,,,0.00,meteohub,2013-12-10 06:08:00,
2013-12-10 00:13:00,-6.0,-17.0,30.28,South,180,6.0,8.0,58,0.00,,,0.00,meteohub,2013-12-10 06:13:00,
2013-12-10 00:18:00,-6.0,-16.6,30.28,South,180,6.0,8.0,59,0.00,,,0.00,meteohub,2013-12-10 06:18:00,
2013-12-10 00:23:00,-5.6,-16.6,30.28,South,180,8.0,8.0,58,0.00,,,0.00,meteohub,2013-12-10 06:23:00,
2013-12-10 00:28:00,-5.4,-16.1,30.27,South,180,4.0,8.0,59,0.00,,,0.00,meteohub,2013-12-10 06:28:00,
2013-12-10 00:33:00,-5.4,-16.1,30.27,South,180,5.0,8.0,59,0.00,,,0.00,meteohub,2013-12-10 06:33:00,
2013-12-10 00:38:00,-5.4,-16.1,30.27,SW,225,5.0,8.0,59,0.00,,,0.00,meteohub,2013-12-10 06:38:00,
2013-12-10 00:43:00,-5.6,-16.2,30.26,SW,225,4.0,7.0,59,0.00,,,0.00,meteohub,2013-12-10 06:43:00,
2013-12-10 00:48:00,-5.8,-16.4,30.26,South,180,4.0,7.0,59,0.00,,,0.00,meteohub,2013-12-10 06:48:00,
2013-12-10 00:54:00,-5.8,-16.4,30.26,South,180,4.0,7.0,59,0.00,,,0.00,meteohub,2013-12-10 06:54:00,
2013-12-10 00:59:00,-6.0,-16.2,30.25,South,180,5.0,7.0,60,0.00,,,0.00,meteohub,2013-12-10 06:59:00,
2013-12-10 01:04:00,-6.7,-17.0,30.25,South,180,6.0,6.0,60,0.00,,,0.00,meteohub,2013-12-10 07:04:00,
2013-12-10 01:09:00,-7.1,-17.7,30.25,South,180,5.0,10.0,59,0.00,,,0.00,meteohub,2013-12-10 07:09:00,
2013-12-10 01:14:00,-6.7,-17.0,30.24,South,180,7.0,10.0,60,0.00,,,0.00,meteohub,2013-12-10 07:14:00,
2013-12-10 01:19:00,-6.2,-16.1,30.24,South,180,7.0,10.0,61,0.00,,,0.00,meteohub,2013-12-10 07:19:00,
2013-12-10 01:24:00,-5.8,-16.1,30.24,South,180,8.0,10.0,60,0.00,,,0.00,meteohub,2013-12-10 07:24:00,
2013-12-10 01:29:00,-5.6,-15.9,30.23,South,180,6.0,10.0,60,0.00,,,0.00,meteohub,2013-12-10 07:29:00,
2013-12-10 01:34:00,-5.3,-15.2,30.22,South,180,8.0,11.0,61,0.00,,,0.00,meteohub,2013-12-10 07:34:00,
2013-12-10 01:39:00,-5.1,-15.2,30.22,SE,135,9.0,11.0,61,0.00,,,0.00,meteohub,2013-12-10 07:39:00,
2013-12-10 01:44:00,-5.8,-16.1,30.22,South,180,9.0,11.0,60,0.00,,,0.00,meteohub,2013-12-10 07:44:00,
2013-12-10 01:49:00,-6.0,-15.9,30.21,South,180,11.0,11.0,61,0.00,,,0.00,meteohub,2013-12-10 07:49:00,
2013-12-10 01:54:00,-6.0,-15.9,30.21,SE,135,10.0,12.0,61,0.00,,,0.00,meteohub,2013-12-10 07:54:00,
2013-12-10 01:59:00,-5.8,-16.1,30.20,South,180,9.0,13.0,60,0.00,,,0.00,meteohub,2013-12-10 07:59:00,
2013-12-10 02:05:00,-5.4,-15.3,30.21,SE,135,8.0,13.0,61,0.00,,,0.00,meteohub,2013-12-10 08:05:00,
2013-12-10 02:10:00,-5.4,-15.3,30.20,SE,135,9.0,11.0,61,0.00,,,0.00,meteohub,2013-12-10 08:10:00,
2013-12-10 02:15:00,-5.4,-15.3,30.20,South,180,10.0,11.0,61,0.00,,,0.00,meteohub,2013-12-10 08:15:00,
2013-12-10 02:20:00,-5.4,-15.3,30.19,SE,135,11.0,11.0,61,0.00,,,0.00,meteohub,2013-12-10 08:20:00,
2013-12-10 02:25:00,-5.3,-15.2,30.19,SE,135,9.0,11.0,61,0.00,,,0.00,meteohub,2013-12-10 08:25:00,
2013-12-10 02:30:00,-5.1,-15.2,30.19,SE,135,8.0,12.0,61,0.00,,,0.00,meteohub,2013-12-10 08:30:00,
2013-12-10 02:35:00,-4.9,-15.0,30.18,South,180,11.0,12.0,61,0.00,,,0.00,meteohub,2013-12-10 08:35:00,
2013-12-10 02:40:00,-4.5,-14.3,30.18,South,180,11.0,14.0,62,0.00,,,0.00,meteohub,2013-12-10 08:40:00,
2013-12-10 02:45:00,-4.5,-14.3,30.18,South,180,9.0,14.0,62,0.00,,,0.00,meteohub,2013-12-10 08:45:00,
2013-12-10 02:50:00,-4.7,-14.8,30.17,South,180,8.0,14.0,61,0.00,,,0.00,meteohub,2013-12-10 08:50:00,
2013-12-10 02:55:00,-4.5,-14.6,30.17,South,180,8.0,12.0,61,0.00,,,0.00,meteohub,2013-12-10 08:55:00,
2013-12-10 03:00:00,-4.5,-14.6,30.16,South,180,15.0,15.0,61,0.00,,,0.00,meteohub,2013-12-10 09:00:00,
2013-12-10 03:05:00,-4.5,-14.3,30.16,South,180,10.0,15.0,62,0.00,,,0.00,meteohub,2013-12-10 09:05:00,
2013-12-10 03:11:00,-4.0,-14.1,30.16,South,180,11.0,15.0,61,0.00,,,0.00,meteohub,2013-12-10 09:11:00,
2013-12-10 03:16:00,-3.8,-13.9,30.15,SE,135,11.0,15.0,61,0.00,,,0.00,meteohub,2013-12-10 09:16:00,
2013-12-10 03:21:00,-3.6,-13.7,30.15,South,180,9.0,14.0,61,0.00,,,0.00,meteohub,2013-12-10 09:21:00,
2013-12-10 03:26:00,-3.5,-13.2,30.14,SE,135,11.0,12.0,62,0.00,,,0.00,meteohub,2013-12-10 09:26:00,
2013-12-10 03:31:00,-3.1,-12.8,30.14,South,180,11.0,12.0,62,0.00,,,0.00,meteohub,2013-12-10 09:31:00,
2013-12-10 03:36:00,-3.1,-12.8,30.13,South,180,11.0,16.0,62,0.00,,,0.00,meteohub,2013-12-10 09:36:00,
2013-12-10 03:41:00,-2.7,-12.5,30.12,South,180,11.0,16.0,62,0.00,,,0.00,meteohub,2013-12-10 09:41:00,
2013-12-10 03:46:00,-2.6,-12.3,30.12,South,180,8.0,14.0,62,0.00,,,0.00,meteohub,2013-12-10 09:46:00,
2013-12-10 03:51:00,-2.4,-12.1,30.11,South,180,8.0,14.0,62,0.00,,,0.00,meteohub,2013-12-10 09:51:00,
2013-12-10 03:56:00,-2.2,-12.3,30.11,SE,135,10.0,11.0,61,0.00,,,0.00,meteohub,2013-12-10 09:56:00,
2013-12-10 04:01:00,-1.5,-11.4,30.10,South,180,15.0,15.0,62,0.00,,,0.00,meteohub,2013-12-10 10:01:00,
2013-12-10 04:06:00,-0.8,-10.7,30.09,SE,135,11.0,17.0,62,0.00,,,0.00,meteohub,2013-12-10 10:06:00,
2013-12-10 04:11:00,0.1,-10.5,30.10,SW,225,15.0,17.0,60,0.00,,,0.00,meteohub,2013-12-10 10:11:00,
2013-12-10 04:16:00,0.7,-10.3,30.10,South,180,11.0,17.0,59,0.00,,,0.00,meteohub,2013-12-10 10:16:00,
2013-12-10 04:21:00,0.7,-10.3,30.09,South,180,11.0,15.0,59,0.00,,,0.00,meteohub,2013-12-10 10:21:00,
2013-12-10 04:27:00,1.8,-8.9,30.08,SW,225,12.0,15.0,60,0.00,,,0.00,meteohub,2013-12-10 10:27:00,
2013-12-10 04:32:00,1.8,-9.2,30.09,SW,225,13.0,15.0,59,0.00,,,0.00,meteohub,2013-12-10 10:32:00,
2013-12-10 04:37:00,1.8,-9.6,30.07,South,180,13.0,19.0,58,0.00,,,0.00,meteohub,2013-12-10 10:37:00,
2013-12-10 04:42:00,1.9,-9.8,30.08,SW,225,18.0,19.0,57,0.00,,,0.00,meteohub,2013-12-10 10:42:00,
2013-12-10 04:47:00,1.9,-9.8,30.07,South,180,17.0,22.0,57,0.00,,,0.00,meteohub,2013-12-10 10:47:00,
2013-12-10 04:52:00,1.9,-10.1,30.06,SW,225,16.0,22.0,56,0.00,,,0.00,meteohub,2013-12-10 10:52:00,
2013-12-10 04:57:00,1.9,-9.8,30.06,South,180,16.0,22.0,57,0.00,,,0.00,meteohub,2013-12-10 10:57:00,
2013-12-10 05:02:00,1.9,-9.4,30.06,South,180,15.0,24.0,58,0.00,,,0.00,meteohub,2013-12-10 11:02:00,
2013-12-10 05:07:00,1.9,-9.0,30.07,SW,225,16.0,24.0,59,0.00,,,0.00,meteohub,2013-12-10 11:07:00,
2013-12-10 05:12:00,1.9,-8.3,30.07,SW,225,7.0,24.0,61,0.00,,,0.00,meteohub,2013-12-10 11:12:00,
2013-12-10 05:17:00,2.1,-7.6,30.07,SW,225,11.0,19.0,63,0.00,,,0.00,meteohub,2013-12-10 11:17:00,
2013-12-10 05:22:00,2.3,-7.1,30.07,SW,225,10.0,19.0,64,0.00,,,0.00,meteohub,2013-12-10 11:22:00,
2013-12-10 05:27:00,2.5,-6.5,30.07,South,180,9.0,15.0,65,0.00,,,0.00,meteohub,2013-12-10 11:27:00,
2013-12-10 05:32:00,2.7,-6.2,30.06,SW,225,12.0,17.0,66,0.00,,,0.00,meteohub,2013-12-10 11:32:00,
2013-12-10 05:37:00,2.8,-6.0,30.06,SW,225,13.0,17.0,66,0.00,,,0.00,meteohub,2013-12-10 11:37:00,
2013-12-10 05:43:00,3.2,-5.6,30.06,SW,225,8.0,17.0,66,0.00,,,0.00,meteohub,2013-12-10 11:43:00,
2013-12-10 05:48:00,3.6,-5.3,30.06,South,180,14.0,19.0,66,0.00,,,0.00,meteohub,2013-12-10 11:48:00,
2013-12-10 05:53:00,3.7,-4.7,30.06,South,180,15.0,19.0,67,0.00,,,0.00,meteohub,2013-12-10 11:53:00,
2013-12-10 05:58:00,3.9,-4.5,30.06,South,180,13.0,21.0,67,0.00,,,0.00,meteohub,2013-12-10 11:58:00,
2013-12-10 06:03:00,4.3,-4.2,30.05,SW,225,16.0,21.0,67,0.00,,,0.00,meteohub,2013-12-10 12:03:00,
2013-12-10 06:08:00,4.6,-3.8,30.06,SW,225,10.0,21.0,67,0.00,,,0.00,meteohub,2013-12-10 12:08:00,
2013-12-10 06:13:00,5.0,-3.6,30.05,SW,225,13.0,19.0,67,0.00,,,0.00,meteohub,2013-12-10 12:13:00,
2013-12-10 06:18:00,5.2,-3.5,30.05,SW,225,11.0,19.0,67,0.00,,,0.00,meteohub,2013-12-10 12:18:00,
2013-12-10 06:23:00,5.4,-3.3,30.06,SW,225,17.0,17.0,67,0.00,,,0.00,meteohub,2013-12-10 12:23:00,
2013-12-10 06:28:00,6.1,-2.2,30.06,South,180,10.0,17.0,68,0.00,,,0.00,meteohub,2013-12-10 12:28:00,
2013-12-10 06:33:00,6.1,-2.2,30.05,South,180,16.0,17.0,68,0.00,,,0.00,meteohub,2013-12-10 12:33:00,
2013-12-10 06:38:00,6.3,-1.7,30.05,South,180,12.0,17.0,69,0.00,,,0.00,meteohub,2013-12-10 12:38:00,
2013-12-10 06:43:00,6.4,-1.5,30.05,South,180,14.0,19.0,69,0.00,,,0.00,meteohub,2013-12-10 12:43:00,
2013-12-10 06:48:00,6.8,-1.5,30.05,SW,225,11.0,19.0,68,0.00,,,0.00,meteohub,2013-12-10 12:48:00,
2013-12-10 06:53:00,7.2,-0.9,30.05,SW,225,13.0,19.0,69,0.00,,,0.00,meteohub,2013-12-10 12:53:00,
2013-12-10 06:59:00,7.3,-0.8,30.05,SW,225,14.0,17.0,69,0.00,,,0.00,meteohub,2013-12-10 12:59:00,
2013-12-10 07:04:00,7.5,-0.6,30.05,SW,225,17.0,17.0,69,0.00,,,0.00,meteohub,2013-12-10 13:04:00,
2013-12-10 07:09:00,8.2,0.5,30.05,SW,225,18.0,18.0,70,0.00,,,0.00,meteohub,2013-12-10 13:09:00,
2013-12-10 07:14:00,8.8,0.7,30.05,SW,225,15.0,18.0,69,0.00,,,0.00,meteohub,2013-12-10 13:14:00,
2013-12-10 07:19:00,8.6,0.1,30.04,SW,225,11.0,20.0,68,0.00,,,0.00,meteohub,2013-12-10 13:19:00,
2013-12-10 07:24:00,9.0,0.5,30.05,SW,225,16.0,20.0,68,0.00,,,0.00,meteohub,2013-12-10 13:24:00,
2013-12-10 07:29:00,9.1,0.7,30.05,SW,225,11.0,17.0,68,0.00,,,0.00,meteohub,2013-12-10 13:29:00,
2013-12-10 07:34:00,9.3,0.9,30.05,SW,225,12.0,17.0,68,0.00,,,0.00,meteohub,2013-12-10 13:34:00,
2013-12-10 07:39:00,9.5,1.0,30.06,SW,225,15.0,16.0,68,0.00,,,0.00,meteohub,2013-12-10 13:39:00,
2013-12-10 07:44:00,9.9,1.4,30.06,SW,225,20.0,20.0,68,0.00,,,0.00,meteohub,2013-12-10 13:44:00,
2013-12-10 07:49:00,10.4,3.2,30.06,SW,225,20.0,20.0,72,0.00,,,0.00,meteohub,2013-12-10 13:49:00,
2013-12-10 07:54:00,10.6,3.4,30.06,SW,225,13.0,22.0,72,0.00,,,0.00,meteohub,2013-12-10 13:54:00,
2013-12-10 07:59:00,10.8,3.2,30.06,SW,225,14.0,22.0,71,0.00,,,0.00,meteohub,2013-12-10 13:59:00,
2013-12-10 08:04:00,11.1,3.6,30.07,SW,225,17.0,22.0,71,0.00,,,0.00,meteohub,2013-12-10 14:04:00,
2013-12-10 08:09:00,11.5,3.9,30.07,SW,225,13.0,19.0,71,0.00,,,0.00,meteohub,2013-12-10 14:09:00,
2013-12-10 08:15:00,11.8,4.3,30.06,SW,225,14.0,21.0,71,0.00,,,0.00,meteohub,2013-12-10 14:15:00,
2013-12-10 08:20:00,12.4,4.5,30.07,SW,225,15.0,21.0,70,0.00,,,0.00,meteohub,2013-12-10 14:20:00,
2013-12-10 08:25:00,12.9,4.6,30.07,SW,225,16.0,21.0,69,0.00,,,0.00,meteohub,2013-12-10 14:25:00,
2013-12-10 08:30:00,13.5,4.8,30.07,SW,225,16.0,19.0,68,0.00,,,0.00,meteohub,2013-12-10 14:30:00,
2013-12-10 08:35:00,13.8,4.8,29.76,SW,225,15.0,20.0,67,0.00,,,0.00,meteohub,2013-12-10 14:35:00,
2013-12-10 08:40:00,14.4,4.8,29.76,SW,225,17.0,24.0,65,0.00,,,0.00,meteohub,2013-12-10 14:40:00,
2013-12-10 08:45:00,14.7,4.8,29.77,NW,315,10.0,24.0,64,0.00,,,0.00,meteohub,2013-12-10 14:45:00,
2013-12-10 08:50:00,15.1,4.8,29.77,SW,225,18.0,24.0,63,0.00,,,0.00,meteohub,2013-12-10 14:50:00,
2013-12-10 08:55:00,15.4,5.2,29.77,SW,225,8.0,20.0,63,0.00,,,0.00,meteohub,2013-12-10 14:55:00,
2013-12-10 09:00:00,15.8,5.2,29.77,SW,225,13.0,21.0,62,0.00,,,0.00,meteohub,2013-12-10 15:00:00,
2013-12-10 09:05:00,16.3,5.2,29.78,West,270,9.0,21.0,61,0.00,,,0.00,meteohub,2013-12-10 15:05:00,
2013-12-10 09:10:00,16.9,5.4,29.78,NW,315,12.0,21.0,60,0.00,,,0.00,meteohub,2013-12-10 15:10:00,
2013-12-10 09:15:00,17.1,5.5,29.79,North,0,16.0,20.0,60,0.00,,,0.00,meteohub,2013-12-10 15:15:00,
2013-12-10 09:20:00,17.6,5.7,29.80,WSW,248,11.0,27.0,59,0.00,,,0.00,meteohub,2013-12-10 15:20:00,
2013-12-10 09:25:00,17.4,5.5,29.80,WNW,293,23.0,27.0,59,0.00,,,0.00,meteohub,2013-12-10 15:25:00,
2013-12-10 09:31:00,17.1,4.8,29.81,West,270,18.0,23.0,58,0.00,,,0.00,meteohub,2013-12-10 15:31:00,
2013-12-10 09:36:00,17.1,4.8,29.82,West,270,21.0,23.0,58,0.00,,,0.00,meteohub,2013-12-10 15:36:00,
2013-12-10 09:41:00,17.4,5.2,29.82,West,270,21.0,23.0,58,0.00,,,0.00,meteohub,2013-12-10 15:41:00,
2013-12-10 09:46:00,17.2,4.6,29.82,NW,315,21.0,21.0,57,0.00,,,0.00,meteohub,2013-12-10 15:46:00,
2013-12-10 09:51:00,16.9,4.3,29.84,West,270,27.0,27.0,57,0.00,,,0.00,meteohub,2013-12-10 15:51:00,
2013-12-10 09:56:00,17.1,4.1,29.85,WNW,293,15.0,30.0,56,0.00,,,0.00,meteohub,2013-12-10 15:56:00,
2013-12-10 10:01:00,17.1,4.1,29.86,West,270,15.0,30.0,56,0.00,,,0.00,meteohub,2013-12-10 16:01:00,
2013-12-10 10:06:00,17.4,3.6,29.86,West,270,29.0,30.0,54,0.01,,,0.01,meteohub,2013-12-10 16:06:00,
2013-12-10 10:11:00,18.0,3.4,29.86,West,270,16.0,29.0,52,0.05,,,0.05,meteohub,2013-12-10 16:11:00,
2013-12-10 10:16:00,18.0,2.8,29.86,North,0,25.0,29.0,51,0.05,,,0.05,meteohub,2013-12-10 16:16:00,
2013-12-10 10:21:00,17.6,1.2,29.86,WNW,293,26.0,30.0,48,0.05,,,0.05,meteohub,2013-12-10 16:21:00,
2013-12-10 10:26:00,17.4,1.0,29.87,SW,225,20.0,30.0,48,0.05,,,0.05,meteohub,2013-12-10 16:26:00,
2013-12-10 10:31:00,17.4,0.7,29.88,West,270,17.0,30.0,47,0.06,,,0.06,meteohub,2013-12-10 16:31:00,
2013-12-10 10:36:00,17.8,-0.4,29.88,SW,225,14.0,27.0,44,0.06,,,0.06,meteohub,2013-12-10 16:36:00,
2013-12-10 10:42:00,18.0,-0.8,29.88,West,270,19.0,27.0,43,0.06,,,0.06,meteohub,2013-12-10 16:42:00,
2013-12-10 10:47:00,17.6,-1.7,29.89,West,270,19.0,30.0,42,0.06,,,0.06,meteohub,2013-12-10 16:47:00,
2013-12-10 10:52:00,17.6,-1.7,29.88,West,270,20.0,37.0,42,0.06,,,0.06,meteohub,2013-12-10 16:52:00,
2013-12-10 10:57:00,17.6,-1.7,29.88,NW,315,22.0,37.0,42,0.06,,,0.06,meteohub,2013-12-10 16:57:00,
2013-12-10 11:02:00,17.4,-1.3,29.88,West,270,15.0,26.0,43,0.06,,,0.06,meteohub,2013-12-10 17:02:00,
2013-12-10 11:07:00,17.4,-1.3,29.88,NW,315,16.0,25.0,43,0.05,,,0.06,meteohub,2013-12-10 17:07:00,
2013-12-10 11:12:00,17.8,-0.9,29.89,West,270,18.0,25.0,43,0.01,,,0.06,meteohub,2013-12-10 17:12:00,
2013-12-10 11:17:00,17.6,-1.1,29.88,SW,225,12.0,23.0,43,0.01,,,0.06,meteohub,2013-12-10 17:17:00,
2013-12-10 11:22:00,17.6,-1.1,29.89,West,270,15.0,20.0,43,0.01,,,0.06,meteohub,2013-12-10 17:22:00,
2013-12-10 11:27:00,17.4,-0.8,29.89,West,270,16.0,25.0,44,0.01,,,0.06,meteohub,2013-12-10 17:27:00,
2013-12-10 11:32:00,16.7,-1.5,29.91,West,270,25.0,25.0,44,0.00,,,0.06,meteohub,2013-12-10 17:32:00,
2013-12-10 11:37:00,16.5,-1.7,29.91,SW,225,20.0,25.0,44,0.00,,,0.06,meteohub,2013-12-10 17:37:00,
2013-12-10 11:42:00,16.0,-2.0,29.92,NNW,338,19.0,28.0,44,0.00,,,0.06,meteohub,2013-12-10 17:42:00,
2013-12-10 11:48:00,16.2,-1.8,29.92,North,0,11.0,28.0,44,0.00,,,0.06,meteohub,2013-12-10 17:48:00,
2013-12-10 11:53:00,16.5,-1.7,29.91,NW,315,15.0,28.0,44,0.00,,,0.06,meteohub,2013-12-10 17:53:00,
2013-12-10 11:58:00,16.9,-1.3,29.92,West,270,14.0,23.0,44,0.00,,,0.06,meteohub,2013-12-10 17:58:00,
2013-12-10 12:03:00,16.9,-1.3,29.92,SW,225,17.0,21.0,44,0.00,,,0.06,meteohub,2013-12-10 18:03:00,
2013-12-10 12:08:00,17.2,-0.9,29.92,SW,225,11.0,25.0,44,0.00,,,0.06,meteohub,2013-12-10 18:08:00,
2013-12-10 12:13:00,16.3,-2.2,29.92,NW,315,21.0,25.0,43,0.00,,,0.06,meteohub,2013-12-10 18:13:00,
2013-12-10 12:18:00,16.0,-2.6,29.93,NW,315,17.0,25.0,43,0.00,,,0.06,meteohub,2013-12-10 18:18:00,
2013-12-10 12:23:00,16.0,-2.6,29.93,NNW,338,8.0,24.0,43,0.00,,,0.06,meteohub,2013-12-10 18:23:00,
2013-12-10 12:28:00,16.9,-1.8,29.92,West,270,17.0,24.0,43,0.00,,,0.06,meteohub,2013-12-10 18:28:00,
2013-12-10 12:33:00,17.1,-1.7,29.93,SW,225,13.0,24.0,43,0.00,,,0.06,meteohub,2013-12-10 18:33:00,
2013-12-10 12:38:00,17.2,-1.5,29.92,SE,135,5.0,17.0,43,0.00,,,0.06,meteohub,2013-12-10 18:38:00,
2013-12-10 12:43:00,17.6,-1.7,29.92,SW,225,19.0,19.0,42,0.00,,,0.06,meteohub,2013-12-10 18:43:00,
2013-12-10 12:48:00,16.9,-1.3,29.93,West,270,13.0,17.0,44,0.00,,,0.06,meteohub,2013-12-10 18:48:00,
2013-12-10 12:54:00,16.7,-1.5,29.93,West,270,17.0,19.0,44,0.00,,,0.06,meteohub,2013-12-10 18:54:00,
2013-12-10 12:59:00,16.5,-1.1,29.94,West,270,19.0,24.0,45,0.00,,,0.06,meteohub,2013-12-10 18:59:00,
2013-12-10 13:04:00,16.5,-1.1,29.94,West,270,11.0,24.0,45,0.00,,,0.06,meteohub,2013-12-10 19:04:00,
2013-12-10 13:09:00,16.9,-0.8,29.95,NW,315,22.0,24.0,45,0.00,,,0.06,meteohub,2013-12-10 19:09:00,
2013-12-10 13:14:00,16.3,-1.8,29.96,North,0,18.0,20.0,44,0.00,,,0.06,meteohub,2013-12-10 19:14:00,
2013-12-10 13:19:00,16.7,-1.5,29.95,West,270,15.0,22.0,44,0.00,,,0.06,meteohub,2013-12-10 19:19:00,
2013-12-10 13:24:00,16.2,-1.8,29.96,West,270,15.0,22.0,44,0.00,,,0.06,meteohub,2013-12-10 19:24:00,
2013-12-10 13:29:00,16.3,-2.2,29.96,NW,315,16.0,22.0,43,0.00,,,0.06,meteohub,2013-12-10 19:29:00,
2013-12-10 13:34:00,16.2,-1.8,29.97,SW,225,17.0,22.0,44,0.00,,,0.06,meteohub,2013-12-10 19:34:00,
2013-12-10 13:39:00,16.0,-2.0,29.97,NW,315,17.0,26.0,44,0.00,,,0.06,meteohub,2013-12-10 19:39:00,
2013-12-10 13:44:00,16.2,-1.8,29.97,West,270,16.0,26.0,44,0.00,,,0.06,meteohub,2013-12-10 19:44:00,
2013-12-10 13:49:00,16.0,-2.0,29.97,NW,315,17.0,26.0,44,0.00,,,0.06,meteohub,2013-12-10 19:49:00,
2013-12-10 13:54:00,15.6,-2.0,29.98,North,0,13.0,22.0,45,0.00,,,0.06,meteohub,2013-12-10 19:54:00,
2013-12-10 13:59:00,15.8,-2.2,29.99,NW,315,16.0,21.0,44,0.00,,,0.06,meteohub,2013-12-10 19:59:00,
2013-12-10 14:05:00,16.0,-2.0,29.99,North,0,15.0,19.0,44,0.00,,,0.06,meteohub,2013-12-10 20:05:00,
2013-12-10 14:10:00,15.6,-2.4,29.99,SW,225,23.0,23.0,44,0.00,,,0.06,meteohub,2013-12-10 20:10:00,
2013-12-10 14:15:00,15.4,-2.6,29.99,West,270,11.0,23.0,44,0.00,,,0.06,meteohub,2013-12-10 20:15:00,
2013-12-10 14:20:00,15.4,-2.6,29.99,SW,225,15.0,23.0,44,0.00,,,0.06,meteohub,2013-12-10 20:20:00,
2013-12-10 14:25:00,15.8,-2.2,29.99,SW,225,18.0,23.0,44,0.00,,,0.06,meteohub,2013-12-10 20:25:00,
2013-12-10 14:30:00,16.0,-2.0,30.00,South,180,8.0,22.0,44,0.00,,,0.06,meteohub,2013-12-10 20:30:00,
2013-12-10 14:35:00,16.2,-2.4,29.99,East,90,12.0,18.0,43,0.00,,,0.06,meteohub,2013-12-10 20:35:00,
2013-12-10 14:40:00,15.8,-2.7,30.00,NW,315,12.0,21.0,43,0.00,,,0.06,meteohub,2013-12-10 20:40:00,
2013-12-10 14:45:00,15.8,-2.7,30.00,SW,225,12.0,21.0,43,0.00,,,0.06,meteohub,2013-12-10 20:45:00,
2013-12-10 14:50:00,15.8,-2.7,30.01,NW,315,17.0,21.0,43,0.00,,,0.06,meteohub,2013-12-10 20:50:00,
2013-12-10 14:55:00,15.3,-2.7,30.01,West,270,11.0,21.0,44,0.00,,,0.06,meteohub,2013-12-10 20:55:00,
2013-12-10 15:00:00,15.1,-2.9,30.01,West,270,13.0,21.0,44,0.00,,,0.06,meteohub,2013-12-10 21:00:00,
2013-12-10 15:05:00,14.7,-3.3,30.01,West,270,18.0,21.0,44,0.00,,,0.06,meteohub,2013-12-10 21:05:00,
2013-12-10 15:11:00,14.2,-3.3,30.01,West,270,15.0,18.0,45,0.00,,,0.06,meteohub,2013-12-10 21:11:00,
2013-12-10 15:16:00,13.8,-3.1,30.01,West,270,16.0,18.0,46,0.00,,,0.06,meteohub,2013-12-10 21:16:00,
2013-12-10 15:21:00,13.5,-3.1,30.01,West,270,5.0,18.0,47,0.00,,,0.06,meteohub,2013-12-10 21:21:00,
2013-12-10 15:26:00,13.3,-3.1,30.02,West,270,9.0,17.0,47,0.00,,,0.06,meteohub,2013-12-10 21:26:00,
2013-12-10 15:31:00,12.9,-3.5,30.03,NW,315,5.0,17.0,47,0.00,,,0.06,meteohub,2013-12-10 21:31:00,
2013-12-10 15:36:00,12.7,-3.6,30.03,NW,315,14.0,19.0,47,0.00,,,0.06,meteohub,2013-12-10 21:36:00,
2013-12-10 15:41:00,12.6,-3.5,30.03,NW,315,9.0,19.0,48,0.00,,,0.06,meteohub,2013-12-10 21:41:00,
2013-12-10 15:46:00,12.6,-3.5,30.03,West,270,8.0,14.0,48,0.00,,,0.06,meteohub,2013-12-10 21:46:00,
2013-12-10 15:51:00,12.4,-3.1,30.04,NW,315,8.0,15.0,49,0.00,,,0.06,meteohub,2013-12-10 21:51:00,
2013-12-10 15:56:00,12.2,-3.3,30.03,West,270,11.0,15.0,49,0.00,,,0.06,meteohub,2013-12-10 21:56:00,
2013-12-10 16:01:00,12.2,-3.3,30.04,NW,315,9.0,13.0,49,0.00,,,0.06,meteohub,2013-12-10 22:01:00,
2013-12-10 16:06:00,12.0,-3.1,30.04,West,270,6.0,12.0,50,0.00,,,0.06,meteohub,2013-12-10 22:06:00,
2013-12-10 16:11:00,11.8,-3.3,30.04,West,270,13.0,15.0,50,0.00,,,0.06,meteohub,2013-12-10 22:11:00,
2013-12-10 16:17:00,11.8,-3.3,30.04,NW,315,18.0,18.0,50,0.00,,,0.06,meteohub,2013-12-10 22:17:00,
2013-12-10 16:22:00,11.7,-3.5,30.04,SW,225,5.0,18.0,50,0.00,,,0.06,meteohub,2013-12-10 22:22:00,
2013-12-10 16:27:00,11.5,-3.1,30.04,West,270,5.0,18.0,51,0.00,,,0.06,meteohub,2013-12-10 22:27:00,
2013-12-10 16:32:00,11.5,-3.1,30.04,West,270,6.0,18.0,51,0.00,,,0.06,meteohub,2013-12-10 22:32:00,
2013-12-10 16:37:00,11.3,-3.3,30.04,West,270,15.0,15.0,51,0.00,,,0.06,meteohub,2013-12-10 22:37:00,
2013-12-10 16:42:00,11.3,-3.3,30.03,West,270,7.0,15.0,51,0.00,,,0.06,meteohub,2013-12-10 22:42:00,
2013-12-10 16:47:00,11.1,-3.1,30.03,West,270,9.0,15.0,52,0.00,,,0.06,meteohub,2013-12-10 22:47:00,
2013-12-10 16:52:00,11.1,-3.1,30.03,SW,225,11.0,15.0,52,0.00,,,0.06,meteohub,2013-12-10 22:52:00,
2013-12-10 16:57:00,10.9,-3.3,30.03,West,270,9.0,11.0,52,0.00,,,0.06,meteohub,2013-12-10 22:57:00,
2013-12-10 17:02:00,10.8,-2.9,30.03,West,270,5.0,11.0,53,0.00,,,0.06,meteohub,2013-12-10 23:02:00,
2013-12-10 17:07:00,10.8,-2.9,30.03,SW,225,6.0,11.0,53,0.00,,,0.06,meteohub,2013-12-10 23:07:00,
2013-12-10 17:15:00,10.6,-2.7,30.04,West,270,4.0,9.0,54,0.00,,,0.06,meteohub,2013-12-10 23:15:00,
2013-12-10 17:20:00,10.4,-2.9,30.03,North,0,4.0,9.0,54,0.00,,,0.06,meteohub,2013-12-10 23:20:00,
2013-12-10 17:25:00,10.2,-4.4,30.02,West,270,8.0,9.0,51,0.00,,,0.06,meteohub,2013-12-10 23:25:00,
2013-12-10 17:30:00,10.4,-2.6,30.02,NW,315,6.0,8.0,55,0.00,,,0.06,meteohub,2013-12-10 23:30:00,
2013-12-10 17:35:00,10.4,-2.6,30.02,SW,225,5.0,8.0,55,0.00,,,0.06,meteohub,2013-12-10 23:35:00,
2013-12-10 17:40:00,10.4,-2.2,30.03,West,270,5.0,8.0,56,0.00,,,0.06,meteohub,2013-12-10 23:40:00,
2013-12-10 17:45:00,10.6,-2.0,30.03,West,270,8.0,9.0,56,0.00,,,0.06,meteohub,2013-12-10 23:45:00,
2013-12-10 17:50:00,10.6,-2.0,30.02,West,270,6.0,9.0,56,0.00,,,0.06,meteohub,2013-12-10 23:50:00,
2013-12-10 17:55:00,10.6,-2.0,30.02,West,270,4.0,9.0,56,0.00,,,0.06,meteohub,2013-12-10 23:55:00,
2013-12-10 18:00:00,10.6,-1.7,30.03,NW,315,10.0,11.0,57,0.00,,,0.06,meteohub,2013-12-11 00:00:00,
2013-12-10 18:05:00,10.8,-1.5,30.04,West,270,6.0,11.0,57,0.00,,,0.00,meteohub,2013-12-11 00:05:00,
2013-12-10 18:10:00,10.8,-1.5,30.04,SW,225,8.0,11.0,57,0.00,,,0.00,meteohub,2013-12-11 00:10:00,
2013-12-10 18:15:00,10.9,-1.3,30.04,West,270,9.0,12.0,57,0.00,,,0.00,meteohub,2013-12-11 00:15:00,
2013-12-10 18:21:00,10.9,-1.3,30.04,West,270,7.0,13.0,57,0.00,,,0.00,meteohub,2013-12-11 00:21:00,
2013-12-10 18:26:00,10.9,-1.3,30.04,West,270,7.0,13.0,57,0.00,,,0.00,meteohub,2013-12-11 00:26:00,
2013-12-10 18:31:00,10.9,-1.3,30.04,West,270,10.0,12.0,57,0.00,,,0.00,meteohub,2013-12-11 00:31:00,
2013-12-10 18:36:00,10.9,-1.3,30.04,SW,225,9.0,12.0,57,0.00,,,0.00,meteohub,2013-12-11 00:36:00,
2013-12-10 18:41:00,10.9,-1.3,30.04,SW,225,8.0,10.0,57,0.00,,,0.00,meteohub,2013-12-11 00:41:00,
2013-12-10 18:46:00,10.9,-1.3,30.05,West,270,6.0,10.0,57,0.00,,,0.00,meteohub,2013-12-11 00:46:00,
2013-12-10 18:51:00,10.9,-1.3,30.05,South,180,7.0,12.0,57,0.00,,,0.00,meteohub,2013-12-11 00:51:00,
2013-12-10 18:56:00,10.9,-1.3,30.05,SW,225,11.0,14.0,57,0.00,,,0.00,meteohub,2013-12-11 00:56:00,
2013-12-10 19:01:00,10.9,-1.3,30.05,West,270,11.0,14.0,57,0.00,,,0.00,meteohub,2013-12-11 01:01:00,
2013-12-10 19:06:00,11.1,-1.1,30.05,West,270,9.0,14.0,57,0.00,,,0.00,meteohub,2013-12-11 01:06:00,
2013-12-10 19:11:00,11.1,-1.1,30.05,SW,225,8.0,13.0,57,0.00,,,0.00,meteohub,2013-12-11 01:11:00,
2013-12-10 19:16:00,11.1,-1.1,30.05,SW,225,8.0,12.0,57,0.00,,,0.00,meteohub,2013-12-11 01:16:00,
2013-12-10 19:21:00,11.3,-0.9,30.04,West,270,6.0,12.0,57,0.00,,,0.00,meteohub,2013-12-11 01:21:00,
2013-12-10 19:26:00,11.5,-0.8,30.04,SW,225,8.0,12.0,57,0.00,,,0.00,meteohub,2013-12-11 01:26:00,
2013-12-10 19:32:00,11.5,-0.8,30.04,South,180,8.0,13.0,57,0.00,,,0.00,meteohub,2013-12-11 01:32:00,
2013-12-10 19:37:00,11.7,-0.9,30.05,West,270,8.0,13.0,56,0.00,,,0.00,meteohub,2013-12-11 01:37:00,
2013-12-10 19:42:00,11.8,-0.8,30.04,SW,225,9.0,13.0,56,0.00,,,0.00,meteohub,2013-12-11 01:42:00,
2013-12-10 19:47:00,11.8,-0.8,30.05,SW,225,7.0,15.0,56,0.00,,,0.00,meteohub,2013-12-11 01:47:00,
2013-12-10 19:52:00,11.8,-0.8,30.04,SW,225,6.0,15.0,56,0.00,,,0.00,meteohub,2013-12-11 01:52:00,
2013-12-10 19:57:00,12.0,-0.6,30.04,West,270,6.0,15.0,56,0.00,,,0.00,meteohub,2013-12-11 01:57:00,
2013-12-10 20:02:00,12.0,-0.2,30.05,SW,225,4.0,10.0,57,0.00,,,0.00,meteohub,2013-12-11 02:02:00,
2013-12-10 20:07:00,12.0,-0.2,30.05,West,270,7.0,10.0,57,0.00,,,0.00,meteohub,2013-12-11 02:07:00,
2013-12-10 20:12:00,12.0,-0.2,30.05,SW,225,5.0,9.0,57,0.00,,,0.00,meteohub,2013-12-11 02:12:00,
2013-12-10 20:17:00,12.0,-0.2,30.05,NW,315,5.0,9.0,57,0.00,,,0.00,meteohub,2013-12-11 02:17:00,
2013-12-10 20:22:00,12.2,-0.6,30.05,SW,225,6.0,9.0,56,0.00,,,0.00,meteohub,2013-12-11 02:22:00,
2013-12-10 20:27:00,12.2,-0.6,30.05,West,270,4.0,9.0,56,0.00,,,0.00,meteohub,2013-12-11 02:27:00,
2013-12-10 20:33:00,12.2,-0.6,30.05,West,270,4.0,9.0,56,0.00,,,0.00,meteohub,2013-12-11 02:33:00,
2013-12-10 20:38:00,12.2,-0.6,30.06,NW,315,6.0,10.0,56,0.00,,,0.00,meteohub,2013-12-11 02:38:00,
2013-12-10 20:43:00,12.2,0.0,30.06,West,270,7.0,11.0,57,0.00,,,0.00,meteohub,2013-12-11 02:43:00,
2013-12-10 20:48:00,12.4,0.0,30.06,SW,225,6.0,11.0,57,0.00,,,0.00,meteohub,2013-12-11 02:48:00,
2013-12-10 20:53:00,12.4,0.0,30.07,West,270,9.0,9.0,57,0.00,,,0.00,meteohub,2013-12-11 02:53:00,
2013-12-10 20:59:00,12.4,0.5,30.08,SW,225,8.0,10.0,58,0.00,,,0.00,meteohub,2013-12-11 02:59:00,
2013-12-10 21:04:00,12.4,0.5,30.08,SW,225,5.0,10.0,58,0.00,,,0.00,meteohub,2013-12-11 03:04:00,
2013-12-10 21:09:00,12.6,1.0,30.07,West,270,7.0,10.0,59,0.00,,,0.00,meteohub,2013-12-11 03:09:00,
2013-12-10 21:14:00,12.6,1.4,30.07,West,270,4.0,10.0,60,0.00,,,0.00,meteohub,2013-12-11 03:14:00,
2013-12-10 21:19:00,12.6,1.4,30.07,SW,225,8.0,10.0,60,0.00,,,0.00,meteohub,2013-12-11 03:19:00,
2013-12-10 21:24:00,12.6,1.6,30.07,SW,225,6.0,9.0,61,0.00,,,0.00,meteohub,2013-12-11 03:24:00,
2013-12-10 21:29:00,12.6,2.3,30.07,SW,225,6.0,8.0,63,0.00,,,0.00,meteohub,2013-12-11 03:29:00,
2013-12-10 21:34:00,12.6,2.7,30.08,West,270,7.0,9.0,64,0.00,,,0.00,meteohub,2013-12-11 03:34:00,
2013-12-10 21:39:00,12.7,2.8,30.08,SW,225,9.0,9.0,64,0.00,,,0.00,meteohub,2013-12-11 03:39:00,
2013-12-10 21:44:00,12.6,3.0,30.08,SW,225,9.0,9.0,65,0.00,,,0.00,meteohub,2013-12-11 03:44:00,
2013-12-10 21:49:00,12.6,3.0,30.07,SW,225,9.0,9.0,65,0.00,,,0.00,meteohub,2013-12-11 03:49:00,
2013-12-10 21:54:00,12.6,3.7,30.08,WSW,248,8.0,9.0,67,0.00,,,0.00,meteohub,2013-12-11 03:54:00,
2013-12-10 22:00:00,12.6,4.1,30.08,SW,225,6.0,9.0,68,0.00,,,0.00,meteohub,2013-12-11 04:00:00,
2013-12-10 22:05:00,12.6,4.1,30.07,SW,225,6.0,9.0,68,0.00,,,0.00,meteohub,2013-12-11 04:05:00,
2013-12-10 22:10:00,12.6,5.0,30.08,SW,225,6.0,9.0,71,0.00,,,0.00,meteohub,2013-12-11 04:10:00,
2013-12-10 22:15:00,12.6,5.0,30.08,SW,225,3.0,8.0,71,0.00,,,0.00,meteohub,2013-12-11 04:15:00,
2013-12-10 22:20:00,12.6,5.2,30.07,West,270,2.0,8.0,72,0.00,,,0.00,meteohub,2013-12-11 04:20:00,
2013-12-10 22:25:00,12.7,5.4,30.07,West,270,4.0,10.0,72,0.00,,,0.00,meteohub,2013-12-11 04:25:00,
2013-12-10 22:30:00,12.7,5.7,30.08,SW,225,5.0,10.0,73,0.00,,,0.00,meteohub,2013-12-11 04:30:00,
2013-12-10 22:35:00,12.7,6.1,30.08,SW,225,9.0,10.0,74,0.00,,,0.00,meteohub,2013-12-11 04:35:00,
2013-12-10 22:40:00,12.7,6.1,30.08,SW,225,4.0,10.0,74,0.00,,,0.00,meteohub,2013-12-11 04:40:00,
2013-12-10 22:45:00,12.7,6.1,30.08,South,180,7.0,10.0,74,0.00,,,0.00,meteohub,2013-12-11 04:45:00,
2013-12-10 22:50:00,12.9,6.3,30.08,SW,225,5.0,10.0,74,0.00,,,0.00,meteohub,2013-12-11 04:50:00,
2013-12-10 22:55:00,12.9,6.4,30.08,SW,225,6.0,8.0,75,0.00,,,0.00,meteohub,2013-12-11 04:55:00,
2013-12-10 23:00:00,12.9,6.4,30.08,SW,225,6.0,8.0,75,0.00,,,0.00,meteohub,2013-12-11 05:00:00,
2013-12-10 23:01:00,12.9,6.4,30.08,SW,225,6.0,8.0,75,0.00,,,0.00,meteohub,2013-12-11 05:01:00,
2013-12-10 23:02:00,12.9,6.4,30.08,SW,225,6.0,8.0,75,0.00,,,0.00,meteohub,2013-12-11 05:02:00,
2013-12-10 23:03:00,12.9,6.4,30.08,SW,225,10.0,10.0,75,0.00,,,0.00,meteohub,2013-12-11 05:03:00,
2013-12-10 23:05:00,12.9,6.4,30.08,SW,225,8.0,8.0,75,0.00,,,0.00,meteohub,2013-12-11 05:05:00,
2013-12-10 23:06:00,12.9,6.4,30.08,WSW,248,6.0,8.0,75,0.00,,,0.00,meteohub,2013-12-11 05:06:00,
2013-12-10 23:11:00,12.9,6.4,30.08,SW,225,5.0,10.0,75,0.00,,,0.00,meteohub,2013-12-11 05:11:00,
2013-12-10 23:16:00,12.9,6.4,30.08,West,270,5.0,10.0,75,0.00,,,0.00,meteohub,2013-12-11 05:16:00,
2013-12-10 23:22:00,12.9,6.4,30.09,SW,225,5.0,8.0,75,0.00,,,0.00,meteohub,2013-12-11 05:22:00,
2013-12-10 23:27:00,12.9,6.4,30.09,SW,225,3.0,6.0,75,0.00,,,0.00,meteohub,2013-12-11 05:27:00,
2013-12-10 23:32:00,12.9,6.8,30.09,SW,225,4.0,7.0,76,0.00,,,0.00,meteohub,2013-12-11 05:32:00,
2013-12-10 23:37:00,12.9,6.8,30.09,SW,225,6.0,7.0,76,0.00,,,0.00,meteohub,2013-12-11 05:37:00,
2013-12-10 23:42:00,13.1,7.0,30.08,SW,225,4.0,7.0,76,0.00,,,0.00,meteohub,2013-12-11 05:42:00,
2013-12-10 23:47:00,13.1,7.0,30.08,NW,315,7.0,7.0,76,0.00,,,0.00,meteohub,2013-12-11 05:47:00,
2013-12-10 23:52:00,13.1,7.0,30.08,NW,315,2.0,7.0,76,0.00,,,0.00,meteohub,2013-12-11 05:52:00,
2013-12-10 23:57:00,13.1,7.0,30.08,SW,225,6.0,7.0,76,0.00,,,0.00,meteohub,2013-12-11 05:57:00,